User: anonymous   Login
Location: Unspecified
(0.0000°N, 0.0000°E)
Time: 14:45:05
(UTC+00:00)
Language:

GOES 2 - Orbit

View from above orbital plane
View from above orbital plane
View from above satellite
View from above satellite

Ground track
Ground track

The orbit data is extracted from the following two-line orbital elements,

1 10061U 77048A   17201.71993625 -.00000264 +00000-0 +00000-0 0  9990
2 10061 013.2328 327.1933 0015461 316.9409 222.0534 00.99398564091175
Epoch (UTC): 20 July 2017 17:16:42
Eccentricity: 0.0015461
inclination: 13.2328°
perigee height: 35967 km
apogee height: 36098 km
right ascension of ascending node: 327.1933°
argument of perigee: 316.9409°
revolutions per day: 0.99398564
mean anomaly at epoch: 222.0534°
orbit number at epoch: 9117

The dashed part of the orbit path shows where the satellite is in the earth's shadow,  

DLR